Location: Newark
(39.0622°N, 106.5590°E)
Time: 14:12:42
(UTC+00:00)

UWE-3 - Pass Details

Date: 23 February 2020
Orbit: 585 x 683 km, 97.6° (Epoch: 09 April)

Event Time Altitude Azimuth Distance (km) Brightness Sun altitude
Rises 22:09:57 0° 15° (NNE) 3,042 ? -17.2°
Reaches altitude 10° 22:12:13 10° 18° (NNE) 2,129 ? -16.8°
Maximum altitude 22:16:52 66° 101° (E) 744 ? -15.9°
Drops below altitude 10° 22:21:29 10° 184° (S) 2,115 ? -15.0°
Sets 22:23:43 0° 187° (S) 3,020 ? -14.5°
